Weather History for KDEW - July, 2013

Change the Weather History Date:

Sunday, July 28, 2013

  Actual Average Record
Temperature  
Mean Temperature 65 °F 67 °F  
Max Temperature 85 °F 86 °F 99 °F (2003)
Min Temperature 44 °F 49 °F 43 °F (2011)
Degree Days  
Heating Degree Days 0 1  
Month to date heating degree days 22 61  
Since 1 June heating degree days 224 261  
Since 1 July heating degree days 22 61  
Cooling Degree Days 0 3  
Month to date cooling degree days 107 66  
Year to date cooling degree days 126 86  
Since 1 June cooling degree days 123 83  
Growing Degree Days 14 (Base 50)    
Moisture  
Dew Point 41 °F    
Average Humidity 47    
Maximum Humidity 76    
Minimum Humidity 18    
Precipitation  
Precipitation 0.00 in 0.01 in 0.12 in (2001)
Month to date precipitation 0.00 0.86  
Year to date precipitation 9.86 12.56  
Sea Level Pressure  
Sea Level Pressure 29.84 in    
Wind  
Wind Speed 4 mph (SSE)    
Max Wind Speed 15 mph    
Max Gust Speed 20 mph    
Visibility 10 miles    
Events      
T = Trace of Precipitation, MM = Missing Value Source: NWS Daily Summary

Daily Weather History Graph

Daily Weather History Graph

Search for Another Location

Airport or City:

Trip Planner

Search our weather history database for the weather conditions in past years. The results will help you decide how hot, cold, wet, or windy it might be!

Date:

Astronomy

Jul. 28, 2013 Rise Set
Actual Time 5:21 AM PDT 8:30 PM PDT
Civil Twilight 4:44 AM PDT 9:07 PM PDT
Nautical Twilight 3:56 AM PDT 9:55 PM PDT
Astronomical Twilight 2:55 AM PDT 10:54 PM PDT
Moon 11:16 PM PDT (7/28) 12:44 PM PDT (7/28)
Length of Visible Light 16h 22m
Length of Day
15h 08m
Waning Gibbous, 60% of the Moon is Illuminated
Jul 28
Waning Gibbous
Jul 29
Last Quarter
Aug 6
New
Aug 14
First Quarter
Aug 20
Full

Hourly Weather History & Observations

Time (PDT) Temp. Windchill Dew Point Humidity Pressure Visibility Wind Dir Wind Speed Gust Speed Precip Events Conditions
12:53 AM 50.0 °F - 39.0 °F 66% 29.84 in 10.0 mi NNE 3.5 mph - N/A   Clear
1:53 AM 50.0 °F - 39.0 °F 66% 29.84 in 10.0 mi NW 4.6 mph - N/A   Clear
2:53 AM 48.9 °F - 37.9 °F 66% 29.84 in 10.0 mi Calm Calm - N/A   Clear
3:53 AM 48.9 °F - 37.9 °F 66% 29.84 in 10.0 mi ENE 4.6 mph - N/A   Clear
4:53 AM 48.9 °F - 39.9 °F 71% 29.85 in 10.0 mi SW 6.9 mph - N/A   Clear
5:53 AM 44.1 °F 42.5 °F 37.9 °F 79% 29.86 in 10.0 mi NE 3.5 mph - N/A   Clear
6:53 AM 55.9 °F - 43.0 °F 62% 29.86 in 10.0 mi Calm Calm - N/A   Clear
7:53 AM 62.1 °F - 43.0 °F 50% 29.88 in 10.0 mi South 5.8 mph - N/A   Clear
8:53 AM 64.9 °F - 43.0 °F 45% 29.89 in 10.0 mi SSE 6.9 mph - N/A   Clear
9:53 AM 69.1 °F - 45.0 °F 42% 29.88 in 10.0 mi SSE 5.8 mph - N/A   Clear
10:53 AM 72.0 °F - 44.1 °F 37% 29.88 in 10.0 mi Variable 3.5 mph - N/A   Scattered Clouds
11:53 AM 75.0 °F - 44.1 °F 33% 29.88 in 10.0 mi SSE 10.4 mph - N/A   Clear
12:53 PM 77.0 °F - 44.1 °F 31% 29.87 in 10.0 mi Variable 4.6 mph - N/A   Clear
1:53 PM 79.0 °F - 44.1 °F 29% 29.85 in 10.0 mi Calm Calm - N/A   Clear
2:53 PM 81.0 °F - 42.1 °F 25% 29.83 in 10.0 mi SSW 8.1 mph - N/A   Clear
3:53 PM 82.9 °F - 39.9 °F 22% 29.82 in 10.0 mi Variable 4.6 mph 19.6 mph N/A   Clear
4:53 PM 84.0 °F - 39.0 °F 20% 29.81 in 10.0 mi Calm Calm - N/A   Clear
5:53 PM 84.0 °F - 37.0 °F 19% 29.80 in 10.0 mi SW 10.4 mph - N/A   Scattered Clouds
6:53 PM 82.0 °F - 36.0 °F 19% 29.79 in 10.0 mi SW 6.9 mph - N/A   Clear
7:53 PM 77.0 °F - 39.0 °F 25% 29.79 in 10.0 mi SSW 4.6 mph - N/A   Clear
8:53 PM 64.0 °F - 41.0 °F 43% 29.81 in 10.0 mi Calm Calm - N/A   Clear
9:53 PM 57.9 °F - 39.9 °F 51% 29.82 in 10.0 mi Calm Calm - N/A   Clear
10:53 PM 55.0 °F - 41.0 °F 59% 29.82 in 10.0 mi NE 4.6 mph - N/A   Clear
11:53 PM 57.9 °F - 42.1 °F 56% 29.83 in 10.0 mi NNE 5.8 mph - N/A   Clear